GPS BIIR-08

Last updated on Sat Jun 27 2026 00:02:55 GMT+0000 (Coordinated Universal Time)

1 27663U 03005A 26177.15567986 .00000080 00000+0 00000+0 0 9998 2 27663 54.8811 214.6123 0148006 53.0952 2.3339 2.00560186171495
UTC large
Height (km)
Speed (km/s)
/
Latitude / Longitude
Inclination (degrees)
Orbital Period (minutes)
Azimuth
Elevation
Range (km)
Doppler Factor

Next 0 passes for location: London (51.5072 / 0.1276)

No passes found over London.
GPS BIIR-08